{"data":{"norad_id":69293,"epoch":"2026-09-20T04:49:36.054336Z","epoch_age_seconds":55854,"freshness":"FRESH","line1":"1 69293U 26118AC  26263.20111174  .00001895  00000+0  27754-3 0  9993","line2":"2 69293  51.9035 343.0157 0000305  85.0621 275.0376 14.79927195 18190","mean_motion":14.79927195,"eccentricity":3.05e-5,"inclination_deg":51.9035,"raan_deg":343.0157,"arg_perigee_deg":85.0621,"mean_anomaly_deg":275.0376,"bstar":0.00027754,"rev_number":1819,"period_min":97.302083836631,"perigee_km":629.34021960731,"apogee_km":629.76768875551,"semimajor_km":7007.6909541814,"source":"CELESTRAK","updated_at":"2026-09-20T09:00:24.808738Z"}}